Year,Month,Day,Hour,Minute,Value (Times are PST for temperature in C)
2018,08,10,00,00,21.30
2018,08,10,00,01,21.30
2018,08,10,00,02,21.30
2018,08,10,00,03,21.30
2018,08,10,00,04,21.30
2018,08,10,00,05,21.30
2018,08,10,00,06,21.30
2018,08,10,00,07,21.30
2018,08,10,00,08,21.30
2018,08,10,00,09,21.30
2018,08,10,00,10,21.30
2018,08,10,00,11,21.20
2018,08,10,00,12,21.20
2018,08,10,00,13,21.20
2018,08,10,00,14,21.20
2018,08,10,00,15,21.20
2018,08,10,00,16,21.10
2018,08,10,00,17,21.10
2018,08,10,00,18,21.10
2018,08,10,00,19,21.10
2018,08,10,00,20,21.10
2018,08,10,00,21,21.10
2018,08,10,00,22,21.10
2018,08,10,00,23,21.10
2018,08,10,00,24,21.10
2018,08,10,00,25,21.10
2018,08,10,00,26,21.10
2018,08,10,00,27,21.10
2018,08,10,00,28,21.10
2018,08,10,00,29,21.10
2018,08,10,00,30,21.10
2018,08,10,00,31,21.10
2018,08,10,00,32,21.10
2018,08,10,00,33,21.10
2018,08,10,00,34,21.10
2018,08,10,00,35,21.10
2018,08,10,00,36,21.10
2018,08,10,00,37,21.10
2018,08,10,00,38,21.10
2018,08,10,00,39,21.10
2018,08,10,00,40,21.10
2018,08,10,00,41,21.10
2018,08,10,00,42,21.10
2018,08,10,00,43,21.20
2018,08,10,00,44,21.20
2018,08,10,00,45,21.20
2018,08,10,00,46,21.30
2018,08,10,00,47,21.30
2018,08,10,00,48,21.30
2018,08,10,00,49,21.30
2018,08,10,00,50,21.30
2018,08,10,00,51,21.30
2018,08,10,00,52,21.30
2018,08,10,00,53,21.30
2018,08,10,00,54,21.30
2018,08,10,00,55,21.30
2018,08,10,00,56,21.30
2018,08,10,00,57,21.30
2018,08,10,00,58,21.30
2018,08,10,00,59,21.30
2018,08,10,01,00,21.40
2018,08,10,01,01,21.40
2018,08,10,01,02,21.60
2018,08,10,01,03,21.80
2018,08,10,01,04,22.20
2018,08,10,01,05,22.60
2018,08,10,01,06,22.90
2018,08,10,01,07,23.20
2018,08,10,01,08,23.40
2018,08,10,01,09,23.60
2018,08,10,01,10,23.70
2018,08,10,01,11,23.80
2018,08,10,01,12,23.90
2018,08,10,01,13,24.00
2018,08,10,01,14,24.00
2018,08,10,01,15,24.10
2018,08,10,01,16,24.10
2018,08,10,01,17,24.10
2018,08,10,01,18,24.20
2018,08,10,01,19,24.20
2018,08,10,01,20,24.20
2018,08,10,01,21,24.20
2018,08,10,01,22,24.20
2018,08,10,01,23,24.20
2018,08,10,01,24,24.20
2018,08,10,01,25,24.20
2018,08,10,01,26,24.20
2018,08,10,01,27,24.20
2018,08,10,01,28,24.10
2018,08,10,01,29,24.10
2018,08,10,01,30,24.10
2018,08,10,01,31,24.10
2018,08,10,01,32,24.10
2018,08,10,01,33,24.10
2018,08,10,01,34,24.10
2018,08,10,01,35,24.10
2018,08,10,01,36,24.10
2018,08,10,01,37,24.10
2018,08,10,01,38,24.10
2018,08,10,01,39,24.10
2018,08,10,01,40,24.20
2018,08,10,01,41,24.20
2018,08,10,01,42,24.30
2018,08,10,01,43,24.30
2018,08,10,01,44,24.30
2018,08,10,01,45,24.40
2018,08,10,01,46,24.40
2018,08,10,01,47,24.40
2018,08,10,01,48,24.40
2018,08,10,01,49,24.40
2018,08,10,01,50,24.40
2018,08,10,01,51,24.40
2018,08,10,01,52,24.40
2018,08,10,01,53,24.40
2018,08,10,01,54,24.40
2018,08,10,01,55,24.40
2018,08,10,01,56,24.40
2018,08,10,01,57,24.40
2018,08,10,01,58,24.40
2018,08,10,01,59,24.40
2018,08,10,02,00,24.50
2018,08,10,02,01,24.50
2018,08,10,02,02,24.40
2018,08,10,02,03,24.40
2018,08,10,02,04,24.40
2018,08,10,02,05,24.40
2018,08,10,02,06,24.40
2018,08,10,02,07,24.50
2018,08,10,02,08,24.50
2018,08,10,02,09,24.50
2018,08,10,02,10,24.50
2018,08,10,02,11,24.50
2018,08,10,02,12,24.60
2018,08,10,02,13,24.60
2018,08,10,02,14,24.60
2018,08,10,02,15,24.60
2018,08,10,02,16,24.60
2018,08,10,02,17,24.60
2018,08,10,02,18,24.60
2018,08,10,02,19,24.60
2018,08,10,02,20,24.60
2018,08,10,02,21,24.60
2018,08,10,02,22,24.60
2018,08,10,02,23,24.50
2018,08,10,02,24,24.50
2018,08,10,02,25,24.40
2018,08,10,02,26,24.40
2018,08,10,02,27,24.40
2018,08,10,02,28,24.40
2018,08,10,02,29,24.40
2018,08,10,02,30,24.40
2018,08,10,02,31,24.30
2018,08,10,02,32,24.30
2018,08,10,02,33,24.30
2018,08,10,02,34,24.30
2018,08,10,02,35,24.30
2018,08,10,02,36,24.30
2018,08,10,02,37,24.30
2018,08,10,02,38,24.30
2018,08,10,02,39,24.30
2018,08,10,02,40,24.30
2018,08,10,02,41,24.30
2018,08,10,02,42,24.30
2018,08,10,02,43,24.30
2018,08,10,02,44,24.30
2018,08,10,02,45,24.30
2018,08,10,02,46,24.20
2018,08,10,02,47,24.20
2018,08,10,02,48,24.20
2018,08,10,02,49,24.20
2018,08,10,02,50,24.20
2018,08,10,02,51,24.20
2018,08,10,02,52,24.20
2018,08,10,02,53,24.20
2018,08,10,02,54,24.20
2018,08,10,02,55,24.10
2018,08,10,02,56,24.10
2018,08,10,02,57,24.00
2018,08,10,02,58,24.00
2018,08,10,02,59,23.90
2018,08,10,03,00,23.90
2018,08,10,03,01,23.90
2018,08,10,03,02,23.80
2018,08,10,03,03,23.80
2018,08,10,03,04,23.80
2018,08,10,03,05,23.80
2018,08,10,03,06,23.70
2018,08,10,03,07,23.70
2018,08,10,03,08,23.60
2018,08,10,03,09,23.60
2018,08,10,03,10,23.60
2018,08,10,03,11,23.50
2018,08,10,03,12,23.40
2018,08,10,03,13,23.40
2018,08,10,03,14,23.30
2018,08,10,03,15,23.30
2018,08,10,03,16,23.30
2018,08,10,03,17,23.30
2018,08,10,03,18,23.20
2018,08,10,03,19,23.20
2018,08,10,03,20,23.20
2018,08,10,03,21,23.20
2018,08,10,03,22,23.10
2018,08,10,03,23,23.10
2018,08,10,03,24,23.10
2018,08,10,03,25,23.10
2018,08,10,03,26,23.20
2018,08,10,03,27,23.30
2018,08,10,03,28,23.30
2018,08,10,03,29,23.30
2018,08,10,03,30,23.30
2018,08,10,03,31,23.40
2018,08,10,03,32,23.40
2018,08,10,03,33,23.40
2018,08,10,03,34,23.50
2018,08,10,03,35,23.50
2018,08,10,03,36,23.60
2018,08,10,03,37,23.60
2018,08,10,03,38,23.60
2018,08,10,03,39,23.60
2018,08,10,03,40,23.60
2018,08,10,03,41,23.60
2018,08,10,03,42,23.60
2018,08,10,03,43,23.60
2018,08,10,03,44,23.60
2018,08,10,03,45,23.60
2018,08,10,03,46,23.60
2018,08,10,03,47,23.60
2018,08,10,03,48,23.60
2018,08,10,03,49,23.60
2018,08,10,03,50,23.60
2018,08,10,03,51,23.60
2018,08,10,03,52,23.60
2018,08,10,03,53,23.60
2018,08,10,03,54,23.60
2018,08,10,03,55,23.60
2018,08,10,03,56,23.60
2018,08,10,03,57,23.60
2018,08,10,03,58,23.60
2018,08,10,03,59,23.60
2018,08,10,04,00,23.60
2018,08,10,04,01,23.60
2018,08,10,04,02,23.60
2018,08,10,04,03,23.60
2018,08,10,04,04,23.60
2018,08,10,04,05,23.60
2018,08,10,04,06,23.60
2018,08,10,04,07,23.60
2018,08,10,04,08,23.50
2018,08,10,04,09,23.50
2018,08,10,04,10,23.50
2018,08,10,04,11,23.50
2018,08,10,04,12,23.50
2018,08,10,04,13,23.40
2018,08,10,04,14,23.40
2018,08,10,04,15,23.40
2018,08,10,04,16,23.40
2018,08,10,04,17,23.40
2018,08,10,04,18,23.40
2018,08,10,04,19,23.40
2018,08,10,04,20,23.40
2018,08,10,04,21,23.40
2018,08,10,04,22,23.50
2018,08,10,04,23,23.50
2018,08,10,04,24,23.50
2018,08,10,04,25,23.50
2018,08,10,04,26,23.50
2018,08,10,04,27,23.50
2018,08,10,04,28,23.60
2018,08,10,04,29,23.60
2018,08,10,04,30,23.50
2018,08,10,04,31,23.50
2018,08,10,04,32,23.50
2018,08,10,04,33,23.50
2018,08,10,04,34,23.50
2018,08,10,04,35,23.50
2018,08,10,04,36,23.50
2018,08,10,04,37,23.50
2018,08,10,04,38,23.50
2018,08,10,04,39,23.60
2018,08,10,04,40,23.60
2018,08,10,04,41,23.60
2018,08,10,04,42,23.60
2018,08,10,04,43,23.60
2018,08,10,04,44,23.60
2018,08,10,04,45,23.60
2018,08,10,04,46,23.60
2018,08,10,04,47,23.60
2018,08,10,04,48,23.50
2018,08,10,04,49,23.50
2018,08,10,04,50,23.50
2018,08,10,04,51,23.40
2018,08,10,04,52,23.40
2018,08,10,04,53,23.40
2018,08,10,04,54,23.40
2018,08,10,04,55,23.30
2018,08,10,04,56,23.30
2018,08,10,04,57,23.30
2018,08,10,04,58,23.20
2018,08,10,04,59,23.20
2018,08,10,05,00,23.20
2018,08,10,05,01,23.20
2018,08,10,05,02,23.20
2018,08,10,05,03,23.20
2018,08,10,05,04,23.10
2018,08,10,05,05,23.10
2018,08,10,05,06,23.10
2018,08,10,05,07,23.10
2018,08,10,05,08,23.10
2018,08,10,05,09,23.10
2018,08,10,05,10,23.10
2018,08,10,05,11,23.10
2018,08,10,05,12,23.20
2018,08,10,05,13,23.20
2018,08,10,05,14,23.20
2018,08,10,05,15,23.20
2018,08,10,05,16,23.20
2018,08,10,05,17,23.20
2018,08,10,05,18,23.30
2018,08,10,05,19,23.30
2018,08,10,05,20,23.30
2018,08,10,05,21,23.30
2018,08,10,05,22,23.30
2018,08,10,05,23,23.30
2018,08,10,05,24,23.30
2018,08,10,05,25,23.30
2018,08,10,05,26,23.30
2018,08,10,05,27,23.30
2018,08,10,05,28,23.30
2018,08,10,05,29,23.40
2018,08,10,05,30,23.40
2018,08,10,05,31,23.40
2018,08,10,05,32,23.40
2018,08,10,05,33,23.40
2018,08,10,05,34,23.40
2018,08,10,05,35,23.40
2018,08,10,05,36,23.30
2018,08,10,05,37,23.30
2018,08,10,05,38,23.30
2018,08,10,05,39,23.30
2018,08,10,05,40,23.30
2018,08,10,05,41,23.30
2018,08,10,05,42,23.30
2018,08,10,05,43,23.30
2018,08,10,05,44,23.30
2018,08,10,05,45,23.30
2018,08,10,05,46,23.30
2018,08,10,05,47,23.30
2018,08,10,05,48,23.30
2018,08,10,05,49,23.30
2018,08,10,05,50,23.20
2018,08,10,05,51,23.20
2018,08,10,05,52,23.20
2018,08,10,05,53,23.20
2018,08,10,05,54,23.20
2018,08,10,05,55,23.10
2018,08,10,05,56,23.10
2018,08,10,05,57,23.10
2018,08,10,05,58,23.10
2018,08,10,05,59,23.10
2018,08,10,06,00,23.00
2018,08,10,06,01,23.00
2018,08,10,06,02,22.90
2018,08,10,06,03,22.90
2018,08,10,06,04,22.90
2018,08,10,06,05,22.90
2018,08,10,06,06,22.90
2018,08,10,06,07,22.90
2018,08,10,06,08,22.90
2018,08,10,06,09,22.90
2018,08,10,06,10,22.90
2018,08,10,06,11,22.90
2018,08,10,06,12,22.90
2018,08,10,06,13,22.80
2018,08,10,06,14,22.80
2018,08,10,06,15,22.80
2018,08,10,06,16,22.80
2018,08,10,06,17,22.80
2018,08,10,06,18,22.80
2018,08,10,06,19,22.80
2018,08,10,06,20,22.70
2018,08,10,06,21,22.70
2018,08,10,06,22,22.80
2018,08,10,06,23,22.80
2018,08,10,06,24,22.70
2018,08,10,06,25,22.70
2018,08,10,06,26,22.80
2018,08,10,06,27,22.70
2018,08,10,06,28,22.70
2018,08,10,06,29,22.70
2018,08,10,06,30,22.70
2018,08,10,06,31,22.70
2018,08,10,06,32,22.70
2018,08,10,06,33,22.70
2018,08,10,06,34,22.70
2018,08,10,06,35,22.70
2018,08,10,06,36,22.70
2018,08,10,06,37,22.70
2018,08,10,06,38,22.70
2018,08,10,06,39,22.70
2018,08,10,06,40,22.70
2018,08,10,06,41,22.70
2018,08,10,06,42,22.70
2018,08,10,06,43,22.70
2018,08,10,06,44,22.70
2018,08,10,06,45,22.70
2018,08,10,06,46,22.70
2018,08,10,06,47,22.70
2018,08,10,06,48,22.70
2018,08,10,06,49,22.70
2018,08,10,06,50,22.70
2018,08,10,06,51,22.70
2018,08,10,06,52,22.70
2018,08,10,06,53,22.70
2018,08,10,06,54,22.60
2018,08,10,06,55,22.60
2018,08,10,06,56,22.60
2018,08,10,06,57,22.60
2018,08,10,06,58,22.70
2018,08,10,06,59,22.70
2018,08,10,07,00,22.70
2018,08,10,07,01,22.70
2018,08,10,07,02,22.70
2018,08,10,07,03,22.70
2018,08,10,07,04,22.70
2018,08,10,07,05,22.70
2018,08,10,07,06,22.70
2018,08,10,07,07,22.70
2018,08,10,07,08,22.70
2018,08,10,07,09,22.80
2018,08,10,07,10,22.80
2018,08,10,07,11,22.80
2018,08,10,07,12,22.80
2018,08,10,07,13,22.80
2018,08,10,07,14,22.80
2018,08,10,07,15,22.80
2018,08,10,07,16,22.80
2018,08,10,07,17,22.80
2018,08,10,07,18,22.80
2018,08,10,07,19,22.80
2018,08,10,07,20,22.80
2018,08,10,07,21,22.80
2018,08,10,07,22,22.80
2018,08,10,07,23,22.80
2018,08,10,07,24,22.80
2018,08,10,07,25,22.80
2018,08,10,07,26,22.80
2018,08,10,07,27,22.80
2018,08,10,07,28,22.80
2018,08,10,07,29,22.90
2018,08,10,07,30,22.90
2018,08,10,07,31,22.90
2018,08,10,07,32,22.90
2018,08,10,07,33,22.90
2018,08,10,07,34,22.90
2018,08,10,07,35,23.00
2018,08,10,07,36,23.00
2018,08,10,07,37,23.00
2018,08,10,07,38,23.00
2018,08,10,07,39,23.00
2018,08,10,07,40,23.00
2018,08,10,07,41,23.10
2018,08,10,07,42,23.10
2018,08,10,07,43,23.10
2018,08,10,07,44,23.10
2018,08,10,07,45,23.10
2018,08,10,07,46,23.10
2018,08,10,07,47,23.10
2018,08,10,07,48,23.20
2018,08,10,07,49,23.20
2018,08,10,07,50,23.20
2018,08,10,07,51,23.20
2018,08,10,07,52,23.20
2018,08,10,07,53,23.20
2018,08,10,07,54,23.20
2018,08,10,07,55,23.20
2018,08,10,07,56,23.20
2018,08,10,07,57,23.20
2018,08,10,07,58,23.30
2018,08,10,07,59,23.30
2018,08,10,08,00,23.30
2018,08,10,08,01,23.30
2018,08,10,08,02,23.30
2018,08,10,08,03,23.40
2018,08,10,08,04,23.40
2018,08,10,08,05,23.40
2018,08,10,08,06,23.40
2018,08,10,08,07,23.40
2018,08,10,08,08,23.40
2018,08,10,08,09,23.40
2018,08,10,08,10,23.40
2018,08,10,08,11,23.40
2018,08,10,08,12,23.40
2018,08,10,08,13,23.40
2018,08,10,08,14,23.40
2018,08,10,08,15,23.40
2018,08,10,08,16,23.40
2018,08,10,08,17,23.30
2018,08,10,08,18,23.30
2018,08,10,08,19,23.30
2018,08,10,08,20,23.30
2018,08,10,08,21,23.30
2018,08,10,08,22,23.40
2018,08,10,08,23,23.40
2018,08,10,08,24,23.40
2018,08,10,08,25,23.40
2018,08,10,08,26,23.40
2018,08,10,08,27,23.40
2018,08,10,08,28,23.50
2018,08,10,08,29,23.50
2018,08,10,08,30,23.60
2018,08,10,08,31,23.60
2018,08,10,08,32,23.60
2018,08,10,08,33,23.60
2018,08,10,08,34,23.60
2018,08,10,08,35,23.70
2018,08,10,08,36,23.70
2018,08,10,08,37,23.80
2018,08,10,08,38,23.80
2018,08,10,08,39,23.90
2018,08,10,08,40,23.90
2018,08,10,08,41,23.90
2018,08,10,08,42,24.00
2018,08,10,08,43,24.00
2018,08,10,08,44,24.00
2018,08,10,08,45,24.00
2018,08,10,08,46,24.10
2018,08,10,08,47,24.10
2018,08,10,08,48,24.10
2018,08,10,08,49,24.20
2018,08,10,08,50,24.20
2018,08,10,08,51,24.20
2018,08,10,08,52,24.20
2018,08,10,08,53,24.30
2018,08,10,08,54,24.30
2018,08,10,08,55,24.40
2018,08,10,08,56,24.50
2018,08,10,08,57,24.60
2018,08,10,08,58,24.70
2018,08,10,08,59,24.70
2018,08,10,09,00,24.70
2018,08,10,09,01,24.70
2018,08,10,09,02,24.70
2018,08,10,09,03,24.70
2018,08,10,09,04,24.70
2018,08,10,09,05,24.70
2018,08,10,09,06,24.80
2018,08,10,09,07,24.80
2018,08,10,09,08,24.90
2018,08,10,09,09,25.00
2018,08,10,09,10,25.10
2018,08,10,09,11,25.10
2018,08,10,09,12,25.20
2018,08,10,09,13,25.30
2018,08,10,09,14,25.30
2018,08,10,09,15,25.20
2018,08,10,09,16,25.20
2018,08,10,09,17,25.20
2018,08,10,09,18,25.20
2018,08,10,09,19,25.20
2018,08,10,09,20,25.20
2018,08,10,09,21,25.20
2018,08,10,09,22,25.20
2018,08,10,09,23,25.30
2018,08,10,09,24,25.30
2018,08,10,09,25,25.30
2018,08,10,09,26,25.30
2018,08,10,09,27,25.40
2018,08,10,09,28,25.40
2018,08,10,09,29,25.40
2018,08,10,09,30,25.50
2018,08,10,09,31,25.50
2018,08,10,09,32,25.60
2018,08,10,09,33,25.60
2018,08,10,09,34,25.60
2018,08,10,09,35,25.60
2018,08,10,09,36,25.60
2018,08,10,09,37,25.60
2018,08,10,09,38,25.60
2018,08,10,09,39,25.60
2018,08,10,09,40,25.60
2018,08,10,09,41,25.60
2018,08,10,09,42,25.60
2018,08,10,09,43,25.50
2018,08,10,09,44,25.50
2018,08,10,09,45,25.50
2018,08,10,09,46,25.50
2018,08,10,09,47,25.50
2018,08,10,09,48,25.60
2018,08,10,09,49,25.70
2018,08,10,09,50,25.70
2018,08,10,09,51,25.80
2018,08,10,09,52,25.80
2018,08,10,09,53,25.80
2018,08,10,09,54,25.80
2018,08,10,09,55,25.90
2018,08,10,09,56,25.90
2018,08,10,09,57,25.90
2018,08,10,09,58,25.90
2018,08,10,09,59,25.90
2018,08,10,10,00,25.90
2018,08,10,10,01,25.90
2018,08,10,10,02,25.90
2018,08,10,10,03,26.00
2018,08,10,10,04,26.00
2018,08,10,10,05,25.90
2018,08,10,10,06,25.90
2018,08,10,10,07,26.00
2018,08,10,10,08,26.00
2018,08,10,10,09,26.00
2018,08,10,10,10,26.10
2018,08,10,10,11,26.10
2018,08,10,10,12,26.10
2018,08,10,10,13,26.20
2018,08,10,10,14,26.20
2018,08,10,10,15,26.20
2018,08,10,10,16,26.10
2018,08,10,10,17,26.10
2018,08,10,10,18,26.10
2018,08,10,10,19,26.00
2018,08,10,10,20,26.00
2018,08,10,10,21,26.00
2018,08,10,10,22,26.00
2018,08,10,10,23,26.10
2018,08,10,10,24,26.10
2018,08,10,10,25,26.10
2018,08,10,10,26,26.00
2018,08,10,10,27,26.00
2018,08,10,10,28,26.00
2018,08,10,10,29,26.00
2018,08,10,10,30,25.90
2018,08,10,10,31,25.90
2018,08,10,10,32,25.90
2018,08,10,10,33,25.80
2018,08,10,10,34,25.80
2018,08,10,10,35,25.80
2018,08,10,10,36,25.80
2018,08,10,10,37,25.80
2018,08,10,10,38,25.90
2018,08,10,10,39,25.90
2018,08,10,10,40,25.90
2018,08,10,10,41,26.00
2018,08,10,10,42,26.00
2018,08,10,10,43,26.00
2018,08,10,10,44,26.00
2018,08,10,10,45,26.00
2018,08,10,10,46,26.00
2018,08,10,10,47,26.00
2018,08,10,10,48,26.10
2018,08,10,10,49,26.10
2018,08,10,10,50,26.10
2018,08,10,10,51,26.10
2018,08,10,10,52,26.10
2018,08,10,10,53,26.10
2018,08,10,10,54,26.20
2018,08,10,10,55,26.20
2018,08,10,10,56,26.30
2018,08,10,10,57,26.30
2018,08,10,10,58,26.30
2018,08,10,10,59,26.30
2018,08,10,11,00,26.40
2018,08,10,11,01,26.40
2018,08,10,11,02,26.40
2018,08,10,11,03,26.50
2018,08,10,11,04,26.50
2018,08,10,11,05,26.50
2018,08,10,11,06,26.60
2018,08,10,11,07,26.60
2018,08,10,11,08,26.70
2018,08,10,11,09,26.70
2018,08,10,11,10,26.80
2018,08,10,11,11,26.80
2018,08,10,11,12,26.90
2018,08,10,11,13,26.90
2018,08,10,11,14,27.00
2018,08,10,11,15,27.10
2018,08,10,11,16,27.10
2018,08,10,11,17,27.10
2018,08,10,11,18,27.10
2018,08,10,11,19,27.20
2018,08,10,11,20,27.10
2018,08,10,11,21,27.10
2018,08,10,11,22,27.00
2018,08,10,11,23,26.90
2018,08,10,11,24,26.80
2018,08,10,11,25,26.70
2018,08,10,11,26,26.70
2018,08,10,11,27,26.70
2018,08,10,11,28,26.70
2018,08,10,11,29,26.70
2018,08,10,11,30,26.80
2018,08,10,11,31,26.80
2018,08,10,11,32,26.90
2018,08,10,11,33,26.90
2018,08,10,11,34,26.90
2018,08,10,11,35,26.90
2018,08,10,11,36,27.00
2018,08,10,11,37,27.00
2018,08,10,11,38,27.00
2018,08,10,11,39,27.00
2018,08,10,11,40,27.00
2018,08,10,11,41,27.00
2018,08,10,11,42,27.00
2018,08,10,11,43,27.00
2018,08,10,11,44,27.00
2018,08,10,11,45,27.00
2018,08,10,11,46,27.00
2018,08,10,11,47,27.00
2018,08,10,11,48,27.00
2018,08,10,11,49,27.10
2018,08,10,11,50,27.20
2018,08,10,11,51,27.30
2018,08,10,11,52,27.40
2018,08,10,11,53,27.50
2018,08,10,11,54,27.60
2018,08,10,11,55,27.70
2018,08,10,11,56,27.80
2018,08,10,11,57,27.90
2018,08,10,11,58,28.00
2018,08,10,11,59,28.10
2018,08,10,12,00,28.10
2018,08,10,12,01,28.10
2018,08,10,12,02,28.10
2018,08,10,12,03,28.10
2018,08,10,12,04,28.10
2018,08,10,12,05,28.00
2018,08,10,12,06,27.90
2018,08,10,12,07,27.80
2018,08,10,12,08,27.90
2018,08,10,12,09,27.90
2018,08,10,12,10,28.00
2018,08,10,12,11,28.00
2018,08,10,12,12,28.10
2018,08,10,12,13,28.10
2018,08,10,12,14,28.00
2018,08,10,12,15,28.00
2018,08,10,12,16,27.90
2018,08,10,12,17,27.90
2018,08,10,12,18,27.80
2018,08,10,12,19,27.80
2018,08,10,12,20,27.70
2018,08,10,12,21,27.70
2018,08,10,12,22,27.70
2018,08,10,12,23,27.70
2018,08,10,12,24,27.70
2018,08,10,12,25,27.70
2018,08,10,12,26,27.70
2018,08,10,12,27,27.60
2018,08,10,12,28,27.60
2018,08,10,12,29,27.60
2018,08,10,12,30,27.70
2018,08,10,12,31,27.70
2018,08,10,12,32,27.80
2018,08,10,12,33,27.90
2018,08,10,12,34,27.90
2018,08,10,12,35,27.90
2018,08,10,12,36,27.90
2018,08,10,12,37,27.90
2018,08,10,12,38,27.90
2018,08,10,12,39,28.00
2018,08,10,12,40,28.10
2018,08,10,12,41,28.20
2018,08,10,12,42,28.30
2018,08,10,12,43,28.40
2018,08,10,12,44,28.50
2018,08,10,12,45,28.60
2018,08,10,12,46,28.70
2018,08,10,12,47,28.80
2018,08,10,12,48,28.80
2018,08,10,12,49,28.70
2018,08,10,12,50,28.70
2018,08,10,12,51,28.60
2018,08,10,12,52,28.10
2018,08,10,12,53,27.30
2018,08,10,12,54,26.60
2018,08,10,12,55,25.90
2018,08,10,12,56,25.30
2018,08,10,12,57,25.00
2018,08,10,12,58,24.70
2018,08,10,12,59,24.50
2018,08,10,13,00,24.40
2018,08,10,13,01,24.30
2018,08,10,13,02,24.30
2018,08,10,13,03,24.30
2018,08,10,13,04,24.30
2018,08,10,13,05,24.10
2018,08,10,13,06,23.80
2018,08,10,13,07,23.50
2018,08,10,13,08,23.30
2018,08,10,13,09,23.30
2018,08,10,13,10,23.30
2018,08,10,13,11,23.40
2018,08,10,13,12,23.40
2018,08,10,13,13,23.50
2018,08,10,13,14,23.60
2018,08,10,13,15,23.60
2018,08,10,13,16,23.70
2018,08,10,13,17,23.70
2018,08,10,13,18,23.70
2018,08,10,13,19,23.70
2018,08,10,13,20,23.70
2018,08,10,13,21,23.80
2018,08,10,13,22,23.80
2018,08,10,13,23,23.90
2018,08,10,13,24,23.90
2018,08,10,13,25,23.90
2018,08,10,13,26,23.90
2018,08,10,13,27,24.00
2018,08,10,13,28,24.00
2018,08,10,13,29,24.00
2018,08,10,13,30,24.10
2018,08,10,13,31,24.00
2018,08,10,13,32,24.00
2018,08,10,13,33,24.10
2018,08,10,13,34,24.10
2018,08,10,13,35,24.10
2018,08,10,13,36,24.20
2018,08,10,13,37,24.20
2018,08,10,13,38,24.20
2018,08,10,13,39,24.30
2018,08,10,13,40,24.30
2018,08,10,13,41,24.30
2018,08,10,13,42,24.30
2018,08,10,13,43,24.30
2018,08,10,13,44,24.30
2018,08,10,13,45,24.30
2018,08,10,13,46,24.30
2018,08,10,13,47,24.30
2018,08,10,13,48,24.30
2018,08,10,13,49,24.30
2018,08,10,13,50,24.30
2018,08,10,13,51,24.30
2018,08,10,13,52,24.30
2018,08,10,13,53,24.40
2018,08,10,13,54,24.40
2018,08,10,13,55,24.40
2018,08,10,13,56,24.40
2018,08,10,13,57,24.40
2018,08,10,13,58,24.40
2018,08,10,13,59,24.40
2018,08,10,14,00,24.40
2018,08,10,14,01,24.40
2018,08,10,14,02,24.40
2018,08,10,14,03,24.40
2018,08,10,14,04,24.40
2018,08,10,14,05,24.40
2018,08,10,14,06,24.40
2018,08,10,14,07,24.40
2018,08,10,14,08,24.50
2018,08,10,14,09,24.50
2018,08,10,14,10,24.50
2018,08,10,14,11,24.50
2018,08,10,14,12,24.60
2018,08,10,14,13,24.60
2018,08,10,14,14,24.60
2018,08,10,14,15,24.60
2018,08,10,14,16,24.60
2018,08,10,14,17,24.70
2018,08,10,14,18,24.70
2018,08,10,14,19,24.70
2018,08,10,14,20,24.80
2018,08,10,14,21,24.80
2018,08,10,14,22,24.90
2018,08,10,14,23,24.90
2018,08,10,14,24,25.00
2018,08,10,14,25,25.00
2018,08,10,14,26,24.90
2018,08,10,14,27,25.00
2018,08,10,14,28,25.00
2018,08,10,14,29,25.00
2018,08,10,14,30,25.10
2018,08,10,14,31,25.10
2018,08,10,14,32,25.20
2018,08,10,14,33,25.20
2018,08,10,14,34,25.20
2018,08,10,14,35,25.20
2018,08,10,14,36,25.30
2018,08,10,14,37,25.30
2018,08,10,14,38,25.40
2018,08,10,14,39,25.50
2018,08,10,14,40,25.60
2018,08,10,14,41,25.70
2018,08,10,14,42,25.80
2018,08,10,14,43,25.80
2018,08,10,14,44,25.80
2018,08,10,14,45,25.90
2018,08,10,14,46,26.00
2018,08,10,14,47,26.00
2018,08,10,14,48,26.10
2018,08,10,14,49,26.10
2018,08,10,14,50,26.20
2018,08,10,14,51,26.20
2018,08,10,14,52,26.20
2018,08,10,14,53,26.20
2018,08,10,14,54,26.20
2018,08,10,14,55,26.10
2018,08,10,14,56,26.20
2018,08,10,14,57,26.20
2018,08,10,14,58,26.30
2018,08,10,14,59,26.30
2018,08,10,15,00,26.40
2018,08,10,15,01,26.50
2018,08,10,15,02,26.50
2018,08,10,15,03,26.60
2018,08,10,15,04,26.60
2018,08,10,15,05,26.60
2018,08,10,15,06,26.60
2018,08,10,15,07,26.50
2018,08,10,15,08,26.50
2018,08,10,15,09,26.50
2018,08,10,15,10,26.50
2018,08,10,15,11,26.60
2018,08,10,15,12,26.60
2018,08,10,15,13,26.50
2018,08,10,15,14,26.40
2018,08,10,15,15,26.30
2018,08,10,15,16,26.20
2018,08,10,15,17,26.20
2018,08,10,15,18,26.20
2018,08,10,15,19,26.20
2018,08,10,15,20,26.20
2018,08,10,15,21,26.20
2018,08,10,15,22,26.20
2018,08,10,15,23,26.20
2018,08,10,15,24,26.30
2018,08,10,15,25,26.30
2018,08,10,15,26,26.40
2018,08,10,15,27,26.40
2018,08,10,15,28,26.40
2018,08,10,15,29,26.40
2018,08,10,15,30,26.40
2018,08,10,15,31,26.40
2018,08,10,15,32,26.50
2018,08,10,15,33,26.50
2018,08,10,15,34,26.60
2018,08,10,15,35,26.60
2018,08,10,15,36,26.70
2018,08,10,15,37,26.80
2018,08,10,15,38,26.90
2018,08,10,15,39,27.00
2018,08,10,15,40,27.00
2018,08,10,15,41,27.10
2018,08,10,15,42,27.10
2018,08,10,15,43,27.20
2018,08,10,15,44,27.20
2018,08,10,15,45,27.30
2018,08,10,15,46,27.30
2018,08,10,15,47,27.30
2018,08,10,15,48,27.40
2018,08,10,15,49,27.40
2018,08,10,15,50,27.50
2018,08,10,15,51,27.60
2018,08,10,15,52,27.60
2018,08,10,15,53,27.60
2018,08,10,15,54,27.60
2018,08,10,15,55,27.60
2018,08,10,15,56,27.50
2018,08,10,15,57,27.50
2018,08,10,15,58,27.40
2018,08,10,15,59,27.40
2018,08,10,16,00,27.30
2018,08,10,16,01,27.10
2018,08,10,16,02,26.90
2018,08,10,16,03,26.80
2018,08,10,16,04,26.60
2018,08,10,16,05,26.60
2018,08,10,16,06,26.50
2018,08,10,16,07,26.40
2018,08,10,16,08,26.40
2018,08,10,16,09,26.30
2018,08,10,16,10,26.30
2018,08,10,16,11,26.40
2018,08,10,16,12,26.40
2018,08,10,16,13,26.40
2018,08,10,16,14,26.40
2018,08,10,16,15,26.40
2018,08,10,16,16,26.40
2018,08,10,16,17,26.40
2018,08,10,16,18,26.50
2018,08,10,16,19,26.50
2018,08,10,16,20,26.50
2018,08,10,16,21,26.60
2018,08,10,16,22,26.60
2018,08,10,16,23,26.70
2018,08,10,16,24,26.60
2018,08,10,16,25,26.60
2018,08,10,16,26,26.60
2018,08,10,16,27,26.60
2018,08,10,16,28,26.50
2018,08,10,16,29,26.50
2018,08,10,16,30,26.40
2018,08,10,16,31,26.30
2018,08,10,16,32,26.30
2018,08,10,16,33,26.30
2018,08,10,16,34,26.20
2018,08,10,16,35,26.00
2018,08,10,16,36,25.90
2018,08,10,16,37,25.80
2018,08,10,16,38,25.70
2018,08,10,16,39,25.50
2018,08,10,16,40,25.40
2018,08,10,16,41,25.30
2018,08,10,16,42,25.20
2018,08,10,16,43,25.00
2018,08,10,16,44,24.90
2018,08,10,16,45,24.80
2018,08,10,16,46,24.80
2018,08,10,16,47,24.80
2018,08,10,16,48,24.70
2018,08,10,16,49,24.60
2018,08,10,16,50,24.40
2018,08,10,16,51,24.30
2018,08,10,16,52,24.20
2018,08,10,16,53,24.10
2018,08,10,16,54,24.10
2018,08,10,16,55,24.10
2018,08,10,16,56,24.10
2018,08,10,16,57,24.10
2018,08,10,16,58,24.10
2018,08,10,16,59,24.10
2018,08,10,17,00,24.20
2018,08,10,17,01,24.20
2018,08,10,17,02,24.30
2018,08,10,17,03,24.30
2018,08,10,17,04,24.40
2018,08,10,17,05,24.40
2018,08,10,17,06,24.40
2018,08,10,17,07,24.40
2018,08,10,17,08,24.40
2018,08,10,17,09,24.50
2018,08,10,17,10,24.50
2018,08,10,17,11,24.60
2018,08,10,17,12,24.60
2018,08,10,17,13,24.60
2018,08,10,17,14,24.70
2018,08,10,17,15,24.70
2018,08,10,17,16,24.70
2018,08,10,17,17,24.80
2018,08,10,17,18,24.80
2018,08,10,17,19,24.80